Location: B�hmisch Kubitzen
(49.3687°N, 12.8585°E)
Time: 01:11:31
(UTC+00:00)

Daily predictions for brighter satellites

Satellite Brightness Start Highest point End
(mag) Time Altitude Azimuth Time Altitude Azimuth Time Altitude Azimuth
BREEZE-M DEB (TANK) 4.4 02:59:10 60° SE 02:59:10 60° SE 03:13:08 10° ESE
Cosmos 2278 Rocket 3.8 03:01:06 31° NE 03:01:06 31° NE 03:05:43 10° ESE
USA 215 4.0 02:58:50 10° ENE 03:03:33 47° NNE 03:03:33 47° NNE
Cosmos 2219 Rocket 3.2 03:18:13 42° E 03:18:13 42° E 03:22:47 10° NE
Cosmos 2333 Rocket 3.1 03:20:48 46° ENE 03:20:48 46° ENE 03:25:16 10° NE
GEOS 3 Rocket 4.5 03:21:25 10° ESE 03:26:09 47° NE 03:26:09 47° NE
Lacrosse 5 rocket 4.0 03:30:45 17° E 03:30:45 17° E 03:31:48 10° E
COSMOS 2428 3.2 03:39:22 54° SE 03:39:56 56° ESE 03:45:30 10° NE
COSMO-SKYMED 1 4.1 03:37:46 10° SE 03:40:40 34° ESE 03:40:40 34° ESE
SL-16 R/B 4.0 03:46:47 19° N 03:46:47 19° N 03:48:47 10° NNE
ADEOS 4.2 03:41:14 10° NNE 03:46:21 54° E 03:49:05 26° SSE
Cosmos 2360 Rocket 3.4 03:49:57 31° N 03:49:57 31° N 03:53:04 10° NNE
Cosmos 2322 Rocket 3.9 03:51:41 21° N 03:51:41 21° N 03:53:55 10° NNE
Meteor 1-22 Rocket 4.5 03:51:06 64° N 03:51:06 64° N 03:56:09 10° NNE
FENGYUN 3A 4.0 03:49:06 10° NNE 03:53:18 56° NNE 03:53:18 56° NNE
IRIDIUM 106 4.3 03:56:09 10° S 04:01:22 79° E 04:06:36 10° N
ERS-2 3.8 04:00:04 10° SE 04:02:12 30° ESE 04:02:12 30° ESE
Cosmos 1980 Rocket 4.5 04:05:39 11° N 04:05:39 11° N 04:06:13 10° N
Cosmos 1763 Rocket 3.8 04:02:41 41° S 04:04:24 66° ESE 04:09:36 10° NNE
Okean 1-7 Rocket 3.9 04:08:43 60° NNE 04:09:18 68° ENE 04:13:47 10° SSE
Cosmos 1898 Rocket 3.6 04:12:47 61° SSW 04:12:47 61° SSW 04:17:10 10° SSE
Cosmos 1953 3.4 04:14:32 10° SSE 04:18:19 44° E 04:22:07 10° NNE
Cosmos 1455 Rocket 2.9 04:22:39 45° S 04:23:57 86° E 04:28:19 10° N
SKYMED 2 3.6 04:25:29 10° S 04:29:15 60° SSW 04:29:15 60° SSW
Cosmos 2034 Rocket 4.3 04:24:09 10° S 04:30:28 69° E 04:36:48 10° NNE
Nadezhda 4 Rocket 3.9 04:27:06 10° N 04:33:16 84° E 04:39:24 10° S
deb Chang Zheng 4 3.5 04:31:24 10° NNE 04:35:41 81° ESE 04:39:54 10° SSW
Cosmos 2369 Rocket 4.2 04:34:05 10° N 04:38:27 22° NE 04:42:48 10° E
METEOR-M 4.2 04:34:32 10° N 04:39:42 50° WNW 04:41:14 39° WSW
Cosmos 468 Rocket 3.9 04:37:50 37° SW 04:39:49 63° WNW 04:45:07 10° NNE
Cosmos 1340 3.2 04:37:38 22° N 04:39:56 58° ENE 04:43:38 10° SSE
Meteor 2-13 Rocket 4.4 04:35:14 10° N 04:41:26 85° W 04:47:35 10° S
SJ-12 3.8 04:37:45 10° N 04:41:54 67° WNW 04:43:11 41° SW
Cosmos 1461 3.1 04:42:03 37° SW 04:43:56 83° NW 04:48:44 10° NE
Cosmos 372 Rocket 4.0 04:40:32 20° NNW 04:44:14 86° ENE 04:49:30 10° SSE
PSLV R/B 3.8 04:40:53 10° SSE 04:45:00 83° WSW 04:47:25 25° NNW
Cosmos 2278 Rocket 2.2 04:43:00 36° NW 04:45:06 57° WSW 04:50:38 10° S
Cosmos 1937 Rocket 3.6 04:43:44 41° WNW 04:45:09 53° WSW 04:50:13 10° S
SAR-Lupe-4 3.4 04:42:21 10° SSE 04:45:56 79° WSW 04:46:25 64° NW
Okean O Rocket 4.5 04:42:53 10° NE 04:46:00 19° E 04:49:05 10° SE
SL-16 R/B 4.3 04:41:23 10° SSE 04:46:06 28° ESE 04:50:52 10° NE
USA 215 3.8 04:41:34 10° ENE 04:47:43 46° N 04:50:54 27° NW
Cosmos 1943 Rocket 3.5 04:42:44 10° NNW 04:47:58 36° NE 04:53:09 10° ESE
ALOS 3.9 04:45:00 10° N 04:46:41 19° NNW 04:46:41 19° NNW
Meteor 1-21 Rocket 4.2 04:44:42 10° NNW 04:50:23 71° W 04:56:09 10° S
Cosmos 1814 Rocket 4.5 04:45:29 10° S 04:50:31 61° ESE 04:55:35 10° NNE
Cosmos 44 Rocket 3.7 04:49:27 40° W 04:50:39 48° WSW 04:55:38 10° SSE
FALCON 9 DEB 4.0 04:50:12 32° SSW 04:51:17 45° SSE 04:54:34 10° ENE
Envisat 3.6 04:46:21 10° NNE 04:51:23 58° E 04:56:24 10° S
Cosmos 1703 3.2 04:48:46 16° N 04:51:48 83° ENE 04:55:42 10° S
Cosmos 1602 Rocket 3.7 04:49:39 10° N 04:54:08 77° E 04:58:36 10° SSE
CZ-2C R/B 3.4 04:49:30 10° SE 04:54:33 51° ENE 04:59:43 10° N
SAR-Lupe-1 4.0 04:53:01 10° S 04:56:33 61° WSW 04:57:17 48° NW
Cosmos 2322 4.4 04:56:40 31° WNW 04:57:36 33° NW 05:02:46 10° NNE
Cosmos 2237 Rocket 2.2 04:51:58 10° SSW 04:57:39 85° ESE 05:03:23 10° NNE
Cosmos 2084 4.1 04:58:15 35° NW 04:58:39 36° NW 05:02:44 10° NNE
Cosmos 1346 Rocket 4.0 04:56:29 10° N 05:00:18 42° ENE 05:04:05 10° SE
H-2A R/B 2.5 04:57:30 10° N 05:01:12 79° WNW 05:04:55 10° SSW
Cosmos 2219 Rocket 2.7 04:59:59 31° W 05:01:33 37° NW 05:06:44 10° NNE
CZ-4B R/B 2.6 04:59:22 10° N 05:02:54 56° WNW 05:06:30 10° SSW
Cosmos 2333 Rocket 2.9 05:02:50 29° WNW 05:04:17 33° NW 05:09:26 10° NNE
GEOS 3 Rocket 4.0 04:59:28 10° SSE 05:04:37 46° WSW 05:07:17 26° WNW
Meteor 1-31 Rocket 4.5 05:02:20 10° N 05:03:43 19° NNW 05:03:43 19° NNW
Cosmos 921 Rocket 3.5 05:06:41 34° WNW 05:07:09 35° WNW 05:11:04 10° N
Lacrosse 5 rocket 1.5 05:06:23 38° W 05:07:20 47° SW 05:10:55 10° SSE
MOS 1 Rocket 3.7 05:04:33 10° S 05:09:17 43° W 05:13:19 13° NNW
Cosmos 2026 Rocket 4.2 05:03:45 10° N 05:10:07 78° E 05:16:30 10° SSE
Cosmos 1689 Rocket 3.0 05:07:50 10° S 05:09:47 31° SW 05:09:47 31° SW
SMAP 4.3 05:06:07 10° NNE 05:10:35 43° E 05:15:01 10° S
NOSS 0 Rocket 3.9 05:06:11 10° SW 05:12:21 67° NW 05:18:31 10° NNE
YAOGAN 6 2.5 05:09:43 10° NNE 05:13:26 85° WNW 05:17:08 10° SSW
Cosmos 540 Rocket 3.4 05:10:58 10° SW 05:16:01 61° WNW 05:21:08 10° NNE
Cosmos 2297 3.9 05:12:12 10° NNW 05:17:59 79° ENE 05:23:45 10° SSE
COSMO-SKYMED 1 3.7 05:14:40 10° SSW 05:17:54 24° W 05:17:54 24° W
Lacrosse 4 Rocket 2.3 05:16:41 10° SSW 05:20:47 53° ESE 05:25:03 10° NE
Cosmos 1328 3.7 05:18:21 10° NNW 05:22:15 62° W 05:26:07 10° S
COSMOS 2428 3.4 05:21:27 20° W 05:24:32 32° NW 05:29:37 10° NNE
Cosmos 1400 Rocket 2.8 05:21:25 10° SSW 05:25:29 65° WNW 05:29:37 10° N
ADEOS 4.5 05:21:17 10° N 05:25:35 27° WNW 05:29:53 10° WSW
PSLV R/B 3.7 05:25:47 10° N 05:29:43 70° WNW 05:33:44 10° SSW
SL-16 R/B 4.2 05:29:03 10° NNW 05:29:58 10° NNW 05:30:54 10° N
SL-4 R/B 3.6 05:27:02 10° SSW 05:30:31 34° SE 05:34:17 10° E
Cosmos 1980 3.8 05:25:18 10° SW 05:30:52 56° NW 05:36:27 10° NNE
Cosmos 1300 3.1 05:27:57 10° S 05:31:44 65° E 05:35:31 10° NNE
Cosmos 2360 Rocket 3.9 05:31:43 14° NW 05:32:59 15° NNW 05:36:04 10° N
Cosmos 1953 Rocket 4.3 05:29:01 10° N 05:33:17 54° ENE 05:37:32 10° SSE
Cosmos 2322 Rocket 4.2 05:33:35 10° NW 05:34:52 11° NNW 05:36:09 10° N
Cosmos 1544 Rocket 4.3 05:31:26 10° SW 05:35:12 29° WNW 05:39:01 10° N
Cosmos 2084 Rocket 3.5 05:33:11 16° NW 05:36:41 80° SW 05:41:11 10° SE
BREEZE M DEB (TANK) 4.1 05:34:34 10° SSW 05:36:41 28° SE 05:40:43 10° ENE
ERS-2 3.8 05:35:01 10° SW 05:36:48 16° WSW 05:36:48 16° WSW
Cosmos 2150 Rocket 4.1 05:38:58 10° NNW 05:44:12 60° WSW 05:49:30 10° S
CZ-4B DEB 4.2 05:40:06 10° NNE 05:45:41 74° WNW 05:51:12 10° SSW
SL-19 R/B 4.2 05:42:01 10° NNE 05:46:12 74° WNW 05:49:45 10° SSW
CENTAUR R/B 3.6 05:42:00 10° SSW 05:47:40 49° ESE 05:54:22 10° NE
Cosmos 1606 Rocket 3.7 05:43:52 10° S 05:48:10 78° E 05:52:30 10° NNE
MOS 1-B 4.3 05:44:05 10° NNE 05:49:54 80° WNW 05:55:40 10° SSW
Cosmos 1908 4.1 05:48:53 10° SW 05:52:07 26° WNW 05:55:23 10° NNW
Cosmos 841 Rocket 4.0 05:48:39 10° WSW 05:53:21 35° NW 05:58:06 10° N
Cosmos 2228 2.9 05:49:13 10° S 05:53:28 83° W 05:57:45 10° N
Cosmos 2292 Rocket 2.9 05:51:15 10° N 05:54:12 69° E 05:57:16 10° SSE
Cosmos 1953 3.7 05:52:06 10° WSW 05:54:57 19° WNW 05:57:47 10° NNW
DMSP B5D2-2 4.1 05:51:36 10° S 05:56:51 72° WSW 06:02:09 10° NNW
CZ-2C R/B 4.0 05:56:43 10° S 05:57:03 10° S 05:57:23 10° S
ATLAS CENTAUR R/B 1.0 05:54:58 10° SW 05:58:39 89° NW 06:02:20 10° NE
H-2A R/B 2.6 05:54:56 10° N 05:59:22 65° WNW 06:03:50 10° SSW
Cosmos 1892 3.2 05:57:20 10° N 06:01:09 64° ENE 06:04:58 10° SSE
Cosmos 1092 Rocket 4.5 05:56:52 10° NNW 06:02:25 37° W 06:07:58 10° SSW
In-Cosmos 22 Rocket 4.2 05:57:49 10° N 06:03:24 85° ENE 06:08:48 10° SSE
USA 238 DEB 3.9 05:57:49 10° SSW 06:04:22 77° SE 06:11:19 10° NE
USA 238 3.9 05:57:57 10° SSW 06:04:31 76° SE 06:11:26 10° NE
Cosmos 2098 Rocket 3.9 05:59:28 10° NNW 06:05:38 51° W 06:10:35 10° SSW
Cosmos 972 Rocket 4.4 06:00:37 10° SSW 06:06:58 61° WNW 06:12:38 10° NNE
Cosmos 1758 Rocket 4.4 06:09:51 10° NNW 06:13:50 31° W 06:17:46 10° SSW
USA 307 3.5 06:10:48 10° SW 06:14:57 60° SSE 06:19:08 10° ENE
Cosmos 1315 Rocket 2.9 06:11:09 10° SSW 06:14:58 53° WNW 06:18:50 10° N
Cosmos 2279 Rocket 4.0 06:09:05 10° SSW 06:15:18 71° W 06:21:35 10° N
